User: anonymous   Login
Location: Unspecified
(0.0000°N, 0.0000°E)
Time: 20:40:00
(UTC+00:00)
Language:

COSMOS 2453 - Orbit

View from above orbital plane
View from above orbital plane
View from above satellite
View from above satellite

Ground track
Ground track

The orbit data is extracted from the following two-line orbital elements,

1 35500U 09036C   17172.70126694 +.00000033 +00000-0 +16948-3 0  9991
2 35500 082.4875 326.9424 0007643 106.3255 253.8662 12.41451819360794
Epoch (UTC): 21 June 2017 16:49:49
Eccentricity: 0.0007643
inclination: 82.4875°
perigee height: 1494 km
apogee height: 1506 km
right ascension of ascending node: 326.9424°
argument of perigee: 106.3255°
revolutions per day: 12.41451819
mean anomaly at epoch: 253.8662°
orbit number at epoch: 36079

The dashed part of the orbit path shows where the satellite is in the earth's shadow,  

DLR